{"data":{"norad_id":57617,"epoch":"2026-05-25T00:27:59.984064Z","epoch_age_seconds":70404,"freshness":"FRESH","line1":"1 57617U 23119R   26145.01944426  .00000538  00000+0  29102-4 0  9993","line2":"2 57617  43.0061  10.2074 0001497 268.4922  91.5758 15.27571001154767","mean_motion":15.27571001,"eccentricity":0.0001497,"inclination_deg":43.0061,"raan_deg":10.2074,"arg_perigee_deg":268.4922,"mean_anomaly_deg":91.5758,"bstar":2.9102e-5,"rev_number":15476,"period_min":94.267304043958,"perigee_km":482.04891882286,"apogee_km":484.10316600776,"semimajor_km":6861.2130424153,"source":"CELESTRAK","updated_at":"2026-05-25T13:38:18.359546Z"}}